owner,sensor,date,latitude,longitude,air_temperature,qcFlag 
WAVCIS,ioos:station:WAVCIS:CSI09:1,2012-03-01T00:00:00Z,29.1015,-89.9782,20.93,11111222 
WAVCIS,ioos:station:WAVCIS:CSI09:1,2012-03-01T01:00:00Z,29.1015,-89.9782,20.65,11111222 
WAVCIS,ioos:station:WAVCIS:CSI09:1,2012-03-01T02:00:00Z,29.1015,-89.9782,20.61,11111222 
WAVCIS,ioos:station:WAVCIS:CSI09:1,2012-03-01T03:00:00Z,29.1015,-89.9782,20.73,11111222 
WAVCIS,ioos:station:WAVCIS:CSI09:1,2012-03-01T04:00:00Z,29.1015,-89.9782,20.53,11111222 
WAVCIS,ioos:station:WAVCIS:CSI09:1,2012-03-01T05:00:00Z,29.1015,-89.9782,20.61,11111222 
WAVCIS,ioos:station:WAVCIS:CSI09:1,2012-03-01T06:00:00Z,29.1015,-89.9782,20.46,11111222 
WAVCIS,ioos:station:WAVCIS:CSI09:1,2012-03-01T07:00:00Z,29.1015,-89.9782,20.45,11111222 
WAVCIS,ioos:station:WAVCIS:CSI09:1,2012-03-01T08:00:00Z,29.1015,-89.9782,20.11,11111222 
WAVCIS,ioos:station:WAVCIS:CSI09:1,2012-03-01T09:00:00Z,29.1015,-89.9782,19.79,11111222 
WAVCIS,ioos:station:WAVCIS:CSI09:1,2012-03-01T10:00:00Z,29.1015,-89.9782,19.63,11111222 
WAVCIS,ioos:station:WAVCIS:CSI09:1,2012-03-01T11:00:00Z,29.1015,-89.9782,19.46,11111222 
WAVCIS,ioos:station:WAVCIS:CSI09:1,2012-03-01T12:00:00Z,29.1015,-89.9782,19.63,11111222 
WAVCIS,ioos:station:WAVCIS:CSI09:1,2012-03-01T13:00:00Z,29.1015,-89.9782,19.99,11111222 
WAVCIS,ioos:station:WAVCIS:CSI09:1,2012-03-01T14:00:00Z,29.1015,-89.9782,20.46,11111222 
WAVCIS,ioos:station:WAVCIS:CSI09:1,2012-03-01T15:00:00Z,29.1015,-89.9782,20.16,11111222 
WAVCIS,ioos:station:WAVCIS:CSI09:1,2012-03-01T16:00:00Z,29.1015,-89.9782,20.16,11111222 
WAVCIS,ioos:station:WAVCIS:CSI09:1,2012-03-01T17:00:00Z,29.1015,-89.9782,20.31,11111222 
WAVCIS,ioos:station:WAVCIS:CSI09:1,2012-03-01T18:00:00Z,29.1015,-89.9782,20.51,11111222 
WAVCIS,ioos:station:WAVCIS:CSI09:1,2012-03-01T19:00:00Z,29.1015,-89.9782,20.6,11111222 
WAVCIS,ioos:station:WAVCIS:CSI09:1,2012-03-01T20:00:00Z,29.1015,-89.9782,21.49,11111222 
WAVCIS,ioos:station:WAVCIS:CSI09:1,2012-03-01T21:00:00Z,29.1015,-89.9782,22.22,11111222 
WAVCIS,ioos:station:WAVCIS:CSI09:1,2012-03-01T22:00:00Z,29.1015,-89.9782,21.24,11111222 
WAVCIS,ioos:station:WAVCIS:CSI09:1,2012-03-01T23:00:00Z,29.1015,-89.9782,20.27,11111222 
WAVCIS,ioos:station:WAVCIS:CSI09:1,2012-03-02T00:00:00Z,29.1015,-89.9782,20.06,11111222 
WAVCIS,ioos:station:WAVCIS:CSI09:1,2012-03-02T01:00:00Z,29.1015,-89.9782,19.62,11111222 
WAVCIS,ioos:station:WAVCIS:CSI09:1,2012-03-02T02:00:00Z,29.1015,-89.9782,20.14,11111222 
WAVCIS,ioos:station:WAVCIS:CSI09:1,2012-03-02T03:00:00Z,29.1015,-89.9782,20.35,11111222 
WAVCIS,ioos:station:WAVCIS:CSI09:1,2012-03-02T04:00:00Z,29.1015,-89.9782,20.34,11111222 
WAVCIS,ioos:station:WAVCIS:CSI09:1,2012-03-02T05:00:00Z,29.1015,-89.9782,20.37,11111222 
WAVCIS,ioos:station:WAVCIS:CSI09:1,2012-03-02T06:00:00Z,29.1015,-89.9782,20.4,11111222 
WAVCIS,ioos:station:WAVCIS:CSI09:1,2012-03-02T07:00:00Z,29.1015,-89.9782,20.49,11111222 
WAVCIS,ioos:station:WAVCIS:CSI09:1,2012-03-02T08:00:00Z,29.1015,-89.9782,20.47,11111222 
WAVCIS,ioos:station:WAVCIS:CSI09:1,2012-03-02T09:00:00Z,29.1015,-89.9782,20.32,11111222 
WAVCIS,ioos:station:WAVCIS:CSI09:1,2012-03-02T10:00:00Z,29.1015,-89.9782,20.86,11111222 
WAVCIS,ioos:station:WAVCIS:CSI09:1,2012-03-02T11:00:00Z,29.1015,-89.9782,21.1,11111222 
WAVCIS,ioos:station:WAVCIS:CSI09:1,2012-03-02T12:00:00Z,29.1015,-89.9782,21.55,11111222 
WAVCIS,ioos:station:WAVCIS:CSI09:1,2012-03-02T13:00:00Z,29.1015,-89.9782,20.32,11111222 
WAVCIS,ioos:station:WAVCIS:CSI09:1,2012-03-02T14:00:00Z,29.1015,-89.9782,20.42,11111222 
WAVCIS,ioos:station:WAVCIS:CSI09:1,2012-03-02T15:00:00Z,29.1015,-89.9782,20.6,11111222 
WAVCIS,ioos:station:WAVCIS:CSI09:1,2012-03-02T16:00:00Z,29.1015,-89.9782,20.68,11111222 
WAVCIS,ioos:station:WAVCIS:CSI09:1,2012-03-02T17:00:00Z,29.1015,-89.9782,20.8,11111222 
WAVCIS,ioos:station:WAVCIS:CSI09:1,2012-03-02T18:00:00Z,29.1015,-89.9782,20.93,11111222 
WAVCIS,ioos:station:WAVCIS:CSI09:1,2012-03-02T19:00:00Z,29.1015,-89.9782,21.23,11111222 
WAVCIS,ioos:station:WAVCIS:CSI09:1,2012-03-02T20:00:00Z,29.1015,-89.9782,21.31,11111222 
WAVCIS,ioos:station:WAVCIS:CSI09:1,2012-03-02T21:00:00Z,29.1015,-89.9782,22.78,11111222 
WAVCIS,ioos:station:WAVCIS:CSI09:1,2012-03-02T22:00:00Z,29.1015,-89.9782,22.74,11111222 
WAVCIS,ioos:station:WAVCIS:CSI09:1,2012-03-02T23:00:00Z,29.1015,-89.9782,22.54,11111222 
WAVCIS,ioos:station:WAVCIS:CSI09:1,2012-03-03T00:00:00Z,29.1015,-89.9782,22.55,11111222 
WAVCIS,ioos:station:WAVCIS:CSI09:1,2012-03-03T01:00:00Z,29.1015,-89.9782,22.33,11111222 
WAVCIS,ioos:station:WAVCIS:CSI09:1,2012-03-03T02:00:00Z,29.1015,-89.9782,22.26,11111222 
WAVCIS,ioos:station:WAVCIS:CSI09:1,2012-03-03T03:00:00Z,29.1015,-89.9782,21.39,11111222 
WAVCIS,ioos:station:WAVCIS:CSI09:1,2012-03-03T04:00:00Z,29.1015,-89.9782,21.58,11111222 
WAVCIS,ioos:station:WAVCIS:CSI09:1,2012-03-03T05:00:00Z,29.1015,-89.9782,21.24,11111222 
WAVCIS,ioos:station:WAVCIS:CSI09:1,2012-03-03T06:00:00Z,29.1015,-89.9782,21.5,11111222 
WAVCIS,ioos:station:WAVCIS:CSI09:1,2012-03-03T07:00:00Z,29.1015,-89.9782,21.87,11111222 
WAVCIS,ioos:station:WAVCIS:CSI09:1,2012-03-03T08:00:00Z,29.1015,-89.9782,21.52,11111222 
WAVCIS,ioos:station:WAVCIS:CSI09:1,2012-03-03T09:00:00Z,29.1015,-89.9782,20.28,11111222 
WAVCIS,ioos:station:WAVCIS:CSI09:1,2012-03-03T10:00:00Z,29.1015,-89.9782,19.96,11111222 
WAVCIS,ioos:station:WAVCIS:CSI09:1,2012-03-03T11:00:00Z,29.1015,-89.9782,20.25,11111222 
WAVCIS,ioos:station:WAVCIS:CSI09:1,2012-03-03T12:00:00Z,29.1015,-89.9782,19.98,11111222 
WAVCIS,ioos:station:WAVCIS:CSI09:1,2012-03-03T13:00:00Z,29.1015,-89.9782,20.31,11111222 
WAVCIS,ioos:station:WAVCIS:CSI09:1,2012-03-03T14:00:00Z,29.1015,-89.9782,20.65,11111222 
WAVCIS,ioos:station:WAVCIS:CSI09:1,2012-03-03T15:00:00Z,29.1015,-89.9782,20.84,11111222 
WAVCIS,ioos:station:WAVCIS:CSI09:1,2012-03-03T16:00:00Z,29.1015,-89.9782,17.53,11111222 
WAVCIS,ioos:station:WAVCIS:CSI09:1,2012-03-03T17:00:00Z,29.1015,-89.9782,16.08,11111222 
WAVCIS,ioos:station:WAVCIS:CSI09:1,2012-03-03T18:00:00Z,29.1015,-89.9782,14.92,11111222 
WAVCIS,ioos:station:WAVCIS:CSI09:1,2012-03-03T19:00:00Z,29.1015,-89.9782,14.4,11111222 
WAVCIS,ioos:station:WAVCIS:CSI09:1,2012-03-03T20:00:00Z,29.1015,-89.9782,14.16,11111222 
WAVCIS,ioos:station:WAVCIS:CSI09:1,2012-03-03T21:00:00Z,29.1015,-89.9782,14.2,11111222 
WAVCIS,ioos:station:WAVCIS:CSI09:1,2012-03-03T22:00:00Z,29.1015,-89.9782,14.21,11111222 
WAVCIS,ioos:station:WAVCIS:CSI09:1,2012-03-03T23:00:00Z,29.1015,-89.9782,13.68,11111222 
WAVCIS,ioos:station:WAVCIS:CSI09:1,2012-03-04T00:00:00Z,29.1015,-89.9782,13.38,11111222 
WAVCIS,ioos:station:WAVCIS:CSI09:1,2012-03-04T01:00:00Z,29.1015,-89.9782,12.82,11111222 
WAVCIS,ioos:station:WAVCIS:CSI09:1,2012-03-04T02:00:00Z,29.1015,-89.9782,12.5,11111222 
WAVCIS,ioos:station:WAVCIS:CSI09:1,2012-03-04T03:00:00Z,29.1015,-89.9782,12.91,11111222 
WAVCIS,ioos:station:WAVCIS:CSI09:1,2012-03-04T04:00:00Z,29.1015,-89.9782,13.3,11111222 
WAVCIS,ioos:station:WAVCIS:CSI09:1,2012-03-04T05:00:00Z,29.1015,-89.9782,12.7,11111222 
WAVCIS,ioos:station:WAVCIS:CSI09:1,2012-03-04T06:00:00Z,29.1015,-89.9782,12.6,11111222 
WAVCIS,ioos:station:WAVCIS:CSI09:1,2012-03-04T07:00:00Z,29.1015,-89.9782,12.82,11111222 
WAVCIS,ioos:station:WAVCIS:CSI09:1,2012-03-04T08:00:00Z,29.1015,-89.9782,12.67,11111222 
WAVCIS,ioos:station:WAVCIS:CSI09:1,2012-03-04T09:00:00Z,29.1015,-89.9782,11.62,11111222 
WAVCIS,ioos:station:WAVCIS:CSI09:1,2012-03-04T10:00:00Z,29.1015,-89.9782,11.72,11111222 
WAVCIS,ioos:station:WAVCIS:CSI09:1,2012-03-04T11:00:00Z,29.1015,-89.9782,11.86,11111222 
WAVCIS,ioos:station:WAVCIS:CSI09:1,2012-03-04T12:00:00Z,29.1015,-89.9782,11.8,11111222 
WAVCIS,ioos:station:WAVCIS:CSI09:1,2012-03-04T13:00:00Z,29.1015,-89.9782,12.04,11111222 
WAVCIS,ioos:station:WAVCIS:CSI09:1,2012-03-04T14:00:00Z,29.1015,-89.9782,11.88,11111222 
WAVCIS,ioos:station:WAVCIS:CSI09:1,2012-03-04T15:00:00Z,29.1015,-89.9782,12.6,11111222 
WAVCIS,ioos:station:WAVCIS:CSI09:1,2012-03-04T16:00:00Z,29.1015,-89.9782,13.45,11111222 
WAVCIS,ioos:station:WAVCIS:CSI09:1,2012-03-04T17:00:00Z,29.1015,-89.9782,14.36,11111222 
WAVCIS,ioos:station:WAVCIS:CSI09:1,2012-03-04T18:00:00Z,29.1015,-89.9782,14.59,11111222 
WAVCIS,ioos:station:WAVCIS:CSI09:1,2012-03-04T19:00:00Z,29.1015,-89.9782,15.04,11111222 
WAVCIS,ioos:station:WAVCIS:CSI09:1,2012-03-04T20:00:00Z,29.1015,-89.9782,15.2,11111222 
WAVCIS,ioos:station:WAVCIS:CSI09:1,2012-03-04T21:00:00Z,29.1015,-89.9782,15.79,11111222 
WAVCIS,ioos:station:WAVCIS:CSI09:1,2012-03-04T22:00:00Z,29.1015,-89.9782,16.0,11111222 
WAVCIS,ioos:station:WAVCIS:CSI09:1,2012-03-04T23:00:00Z,29.1015,-89.9782,15.78,11111222 
WAVCIS,ioos:station:WAVCIS:CSI09:1,2012-03-05T00:00:00Z,29.1015,-89.9782,15.71,11111222 
WAVCIS,ioos:station:WAVCIS:CSI09:1,2012-03-05T01:00:00Z,29.1015,-89.9782,15.69,11111222 
WAVCIS,ioos:station:WAVCIS:CSI09:1,2012-03-05T02:00:00Z,29.1015,-89.9782,15.88,11111222 
WAVCIS,ioos:station:WAVCIS:CSI09:1,2012-03-05T03:00:00Z,29.1015,-89.9782,16.01,11111222 
WAVCIS,ioos:station:WAVCIS:CSI09:1,2012-03-05T04:00:00Z,29.1015,-89.9782,16.23,11111222 
WAVCIS,ioos:station:WAVCIS:CSI09:1,2012-03-05T05:00:00Z,29.1015,-89.9782,16.4,11111222 
WAVCIS,ioos:station:WAVCIS:CSI09:1,2012-03-05T06:00:00Z,29.1015,-89.9782,16.35,11111222 
WAVCIS,ioos:station:WAVCIS:CSI09:1,2012-03-05T07:00:00Z,29.1015,-89.9782,16.3,11111222 
WAVCIS,ioos:station:WAVCIS:CSI09:1,2012-03-05T08:00:00Z,29.1015,-89.9782,15.96,11111222 
WAVCIS,ioos:station:WAVCIS:CSI09:1,2012-03-05T09:00:00Z,29.1015,-89.9782,15.87,11111222 
WAVCIS,ioos:station:WAVCIS:CSI09:1,2012-03-05T10:00:00Z,29.1015,-89.9782,15.92,11111222 
WAVCIS,ioos:station:WAVCIS:CSI09:1,2012-03-05T11:00:00Z,29.1015,-89.9782,15.75,11111222 
WAVCIS,ioos:station:WAVCIS:CSI09:1,2012-03-05T12:00:00Z,29.1015,-89.9782,15.8,11111222 
WAVCIS,ioos:station:WAVCIS:CSI09:1,2012-03-05T13:00:00Z,29.1015,-89.9782,15.91,11111222 
WAVCIS,ioos:station:WAVCIS:CSI09:1,2012-03-05T14:00:00Z,29.1015,-89.9782,16.12,11111222 
WAVCIS,ioos:station:WAVCIS:CSI09:1,2012-03-05T15:00:00Z,29.1015,-89.9782,16.38,11111222 
WAVCIS,ioos:station:WAVCIS:CSI09:1,2012-03-05T16:00:00Z,29.1015,-89.9782,17.21,11111222 
WAVCIS,ioos:station:WAVCIS:CSI09:1,2012-03-05T17:00:00Z,29.1015,-89.9782,18.8,11111222 
WAVCIS,ioos:station:WAVCIS:CSI09:1,2012-03-05T18:00:00Z,29.1015,-89.9782,19.81,11111222 
WAVCIS,ioos:station:WAVCIS:CSI09:1,2012-03-05T19:00:00Z,29.1015,-89.9782,18.42,11111222 
WAVCIS,ioos:station:WAVCIS:CSI09:1,2012-03-05T20:00:00Z,29.1015,-89.9782,18.32,11111222 
WAVCIS,ioos:station:WAVCIS:CSI09:1,2012-03-05T21:00:00Z,29.1015,-89.9782,18.22,11111222 
WAVCIS,ioos:station:WAVCIS:CSI09:1,2012-03-05T22:00:00Z,29.1015,-89.9782,18.23,11111222 
WAVCIS,ioos:station:WAVCIS:CSI09:1,2012-03-05T23:00:00Z,29.1015,-89.9782,18.45,11111222 
WAVCIS,ioos:station:WAVCIS:CSI09:1,2012-03-06T00:00:00Z,29.1015,-89.9782,18.2,11111222 
WAVCIS,ioos:station:WAVCIS:CSI09:1,2012-03-06T01:00:00Z,29.1015,-89.9782,17.92,11111222 
WAVCIS,ioos:station:WAVCIS:CSI09:1,2012-03-06T02:00:00Z,29.1015,-89.9782,17.82,11111222 
WAVCIS,ioos:station:WAVCIS:CSI09:1,2012-03-06T03:00:00Z,29.1015,-89.9782,17.79,11111222 
WAVCIS,ioos:station:WAVCIS:CSI09:1,2012-03-06T04:00:00Z,29.1015,-89.9782,17.73,11111222 
WAVCIS,ioos:station:WAVCIS:CSI09:1,2012-03-06T05:00:00Z,29.1015,-89.9782,17.6,11111222 
WAVCIS,ioos:station:WAVCIS:CSI09:1,2012-03-06T06:00:00Z,29.1015,-89.9782,17.44,11111222 
WAVCIS,ioos:station:WAVCIS:CSI09:1,2012-03-06T07:00:00Z,29.1015,-89.9782,17.19,11111222 
WAVCIS,ioos:station:WAVCIS:CSI09:1,2012-03-06T08:00:00Z,29.1015,-89.9782,17.0,11111222 
WAVCIS,ioos:station:WAVCIS:CSI09:1,2012-03-06T09:00:00Z,29.1015,-89.9782,16.75,11111222 
WAVCIS,ioos:station:WAVCIS:CSI09:1,2012-03-06T10:00:00Z,29.1015,-89.9782,16.81,11111222 
WAVCIS,ioos:station:WAVCIS:CSI09:1,2012-03-06T11:00:00Z,29.1015,-89.9782,16.73,11111222 
WAVCIS,ioos:station:WAVCIS:CSI09:1,2012-03-06T12:00:00Z,29.1015,-89.9782,16.81,11111222 
WAVCIS,ioos:station:WAVCIS:CSI09:1,2012-03-06T13:00:00Z,29.1015,-89.9782,16.91,11111222 
WAVCIS,ioos:station:WAVCIS:CSI09:1,2012-03-06T14:00:00Z,29.1015,-89.9782,17.25,11111222 
WAVCIS,ioos:station:WAVCIS:CSI09:1,2012-03-06T15:00:00Z,29.1015,-89.9782,17.61,11111222 
WAVCIS,ioos:station:WAVCIS:CSI09:1,2012-03-06T16:00:00Z,29.1015,-89.9782,18.18,11111222 
WAVCIS,ioos:station:WAVCIS:CSI09:1,2012-03-06T17:00:00Z,29.1015,-89.9782,18.38,11111222 
WAVCIS,ioos:station:WAVCIS:CSI09:1,2012-03-06T18:00:00Z,29.1015,-89.9782,18.56,11111222 
WAVCIS,ioos:station:WAVCIS:CSI09:1,2012-03-06T19:00:00Z,29.1015,-89.9782,18.92,11111222 
WAVCIS,ioos:station:WAVCIS:CSI09:1,2012-03-06T20:00:00Z,29.1015,-89.9782,19.13,11111222 
WAVCIS,ioos:station:WAVCIS:CSI09:1,2012-03-06T21:00:00Z,29.1015,-89.9782,19.22,11111222 
WAVCIS,ioos:station:WAVCIS:CSI09:1,2012-03-06T22:00:00Z,29.1015,-89.9782,19.29,11111222 
WAVCIS,ioos:station:WAVCIS:CSI09:1,2012-03-06T23:00:00Z,29.1015,-89.9782,19.37,11111222 
WAVCIS,ioos:station:WAVCIS:CSI09:1,2012-03-07T00:00:00Z,29.1015,-89.9782,19.0,11111222 
WAVCIS,ioos:station:WAVCIS:CSI09:1,2012-03-07T01:00:00Z,29.1015,-89.9782,18.99,11111222 
WAVCIS,ioos:station:WAVCIS:CSI09:1,2012-03-07T02:00:00Z,29.1015,-89.9782,18.95,11111222 
WAVCIS,ioos:station:WAVCIS:CSI09:1,2012-03-07T03:00:00Z,29.1015,-89.9782,19.07,11111222 
WAVCIS,ioos:station:WAVCIS:CSI09:1,2012-03-07T04:00:00Z,29.1015,-89.9782,18.92,11111222 
WAVCIS,ioos:station:WAVCIS:CSI09:1,2012-03-07T05:00:00Z,29.1015,-89.9782,18.86,11111222 
WAVCIS,ioos:station:WAVCIS:CSI09:1,2012-03-07T06:00:00Z,29.1015,-89.9782,19.09,11111222 
WAVCIS,ioos:station:WAVCIS:CSI09:1,2012-03-07T07:00:00Z,29.1015,-89.9782,19.19,11111222 
WAVCIS,ioos:station:WAVCIS:CSI09:1,2012-03-07T08:00:00Z,29.1015,-89.9782,19.07,11111222 
WAVCIS,ioos:station:WAVCIS:CSI09:1,2012-03-07T09:00:00Z,29.1015,-89.9782,19.42,11111222 
WAVCIS,ioos:station:WAVCIS:CSI09:1,2012-03-07T10:00:00Z,29.1015,-89.9782,19.28,11111222 
WAVCIS,ioos:station:WAVCIS:CSI09:1,2012-03-07T11:00:00Z,29.1015,-89.9782,19.18,11111222 
WAVCIS,ioos:station:WAVCIS:CSI09:1,2012-03-07T12:00:00Z,29.1015,-89.9782,19.02,11111222 
WAVCIS,ioos:station:WAVCIS:CSI09:1,2012-03-07T13:00:00Z,29.1015,-89.9782,19.19,11111222 
WAVCIS,ioos:station:WAVCIS:CSI09:1,2012-03-07T14:00:00Z,29.1015,-89.9782,19.39,11111222 
WAVCIS,ioos:station:WAVCIS:CSI09:1,2012-03-07T15:00:00Z,29.1015,-89.9782,19.73,11111222 
WAVCIS,ioos:station:WAVCIS:CSI09:1,2012-03-07T16:00:00Z,29.1015,-89.9782,20.04,11111222 
WAVCIS,ioos:station:WAVCIS:CSI09:1,2012-03-07T17:00:00Z,29.1015,-89.9782,20.19,11111222 
WAVCIS,ioos:station:WAVCIS:CSI09:1,2012-03-07T18:00:00Z,29.1015,-89.9782,19.75,11111222 
WAVCIS,ioos:station:WAVCIS:CSI09:1,2012-03-07T19:00:00Z,29.1015,-89.9782,20.21,11111222 
WAVCIS,ioos:station:WAVCIS:CSI09:1,2012-03-07T20:00:00Z,29.1015,-89.9782,20.32,11111222 
WAVCIS,ioos:station:WAVCIS:CSI09:1,2012-03-07T21:00:00Z,29.1015,-89.9782,20.24,11111222 
WAVCIS,ioos:station:WAVCIS:CSI09:1,2012-03-07T22:00:00Z,29.1015,-89.9782,20.39,11111222 
WAVCIS,ioos:station:WAVCIS:CSI09:1,2012-03-07T23:00:00Z,29.1015,-89.9782,20.18,11111222 
WAVCIS,ioos:station:WAVCIS:CSI09:1,2012-03-08T00:00:00Z,29.1015,-89.9782,19.9,11111222 
WAVCIS,ioos:station:WAVCIS:CSI09:1,2012-03-08T01:00:00Z,29.1015,-89.9782,19.76,11111222 
WAVCIS,ioos:station:WAVCIS:CSI09:1,2012-03-08T02:00:00Z,29.1015,-89.9782,19.67,11111222 
WAVCIS,ioos:station:WAVCIS:CSI09:1,2012-03-08T03:00:00Z,29.1015,-89.9782,19.74,11111222 
WAVCIS,ioos:station:WAVCIS:CSI09:1,2012-03-08T04:00:00Z,29.1015,-89.9782,19.68,11111222 
WAVCIS,ioos:station:WAVCIS:CSI09:1,2012-03-08T05:00:00Z,29.1015,-89.9782,19.61,11111222 
WAVCIS,ioos:station:WAVCIS:CSI09:1,2012-03-08T06:00:00Z,29.1015,-89.9782,19.71,11111222 
WAVCIS,ioos:station:WAVCIS:CSI09:1,2012-03-08T07:00:00Z,29.1015,-89.9782,19.56,11111222 
WAVCIS,ioos:station:WAVCIS:CSI09:1,2012-03-08T08:00:00Z,29.1015,-89.9782,19.5,11111222 
WAVCIS,ioos:station:WAVCIS:CSI09:1,2012-03-08T09:00:00Z,29.1015,-89.9782,19.41,11111222 
WAVCIS,ioos:station:WAVCIS:CSI09:1,2012-03-08T10:00:00Z,29.1015,-89.9782,19.5,11111222 
WAVCIS,ioos:station:WAVCIS:CSI09:1,2012-03-08T11:00:00Z,29.1015,-89.9782,19.32,11111222 
WAVCIS,ioos:station:WAVCIS:CSI09:1,2012-03-08T12:00:00Z,29.1015,-89.9782,19.42,11111222 
WAVCIS,ioos:station:WAVCIS:CSI09:1,2012-03-08T13:00:00Z,29.1015,-89.9782,19.47,11111222 
WAVCIS,ioos:station:WAVCIS:CSI09:1,2012-03-08T14:00:00Z,29.1015,-89.9782,19.57,11111222 
WAVCIS,ioos:station:WAVCIS:CSI09:1,2012-03-08T15:00:00Z,29.1015,-89.9782,20.08,11111222 
WAVCIS,ioos:station:WAVCIS:CSI09:1,2012-03-08T16:00:00Z,29.1015,-89.9782,20.32,11111222 
WAVCIS,ioos:station:WAVCIS:CSI09:1,2012-03-08T17:00:00Z,29.1015,-89.9782,20.32,11111222 
WAVCIS,ioos:station:WAVCIS:CSI09:1,2012-03-08T18:00:00Z,29.1015,-89.9782,20.49,11111222 
WAVCIS,ioos:station:WAVCIS:CSI09:1,2012-03-08T19:00:00Z,29.1015,-89.9782,20.67,11111222 
WAVCIS,ioos:station:WAVCIS:CSI09:1,2012-03-08T20:00:00Z,29.1015,-89.9782,20.98,11111222 
WAVCIS,ioos:station:WAVCIS:CSI09:1,2012-03-08T21:00:00Z,29.1015,-89.9782,21.14,11111222 
WAVCIS,ioos:station:WAVCIS:CSI09:1,2012-03-08T22:00:00Z,29.1015,-89.9782,21.23,11111222 
WAVCIS,ioos:station:WAVCIS:CSI09:1,2012-03-08T23:00:00Z,29.1015,-89.9782,21.33,11111222 
WAVCIS,ioos:station:WAVCIS:CSI09:1,2012-03-09T00:00:00Z,29.1015,-89.9782,20.85,11111222 
WAVCIS,ioos:station:WAVCIS:CSI09:1,2012-03-09T01:00:00Z,29.1015,-89.9782,20.51,11111222 
WAVCIS,ioos:station:WAVCIS:CSI09:1,2012-03-09T02:00:00Z,29.1015,-89.9782,20.47,11111222 
WAVCIS,ioos:station:WAVCIS:CSI09:1,2012-03-09T03:00:00Z,29.1015,-89.9782,20.33,11111222 
WAVCIS,ioos:station:WAVCIS:CSI09:1,2012-03-09T04:00:00Z,29.1015,-89.9782,20.28,11111222 
WAVCIS,ioos:station:WAVCIS:CSI09:1,2012-03-09T05:00:00Z,29.1015,-89.9782,20.12,11111222 
WAVCIS,ioos:station:WAVCIS:CSI09:1,2012-03-09T06:00:00Z,29.1015,-89.9782,20.09,11111222 
WAVCIS,ioos:station:WAVCIS:CSI09:1,2012-03-09T07:00:00Z,29.1015,-89.9782,20.25,11111222 
WAVCIS,ioos:station:WAVCIS:CSI09:1,2012-03-09T08:00:00Z,29.1015,-89.9782,20.43,11111222 
WAVCIS,ioos:station:WAVCIS:CSI09:1,2012-03-09T09:00:00Z,29.1015,-89.9782,20.36,11111222 
WAVCIS,ioos:station:WAVCIS:CSI09:1,2012-03-09T10:00:00Z,29.1015,-89.9782,20.66,11111222 
WAVCIS,ioos:station:WAVCIS:CSI09:1,2012-03-09T11:00:00Z,29.1015,-89.9782,20.14,11111222 
WAVCIS,ioos:station:WAVCIS:CSI09:1,2012-03-09T12:00:00Z,29.1015,-89.9782,20.24,11111222 
WAVCIS,ioos:station:WAVCIS:CSI09:1,2012-03-09T13:00:00Z,29.1015,-89.9782,19.93,11111222 
WAVCIS,ioos:station:WAVCIS:CSI09:1,2012-03-09T14:00:00Z,29.1015,-89.9782,19.69,11111222 
WAVCIS,ioos:station:WAVCIS:CSI09:1,2012-03-09T15:00:00Z,29.1015,-89.9782,19.56,11111222 
WAVCIS,ioos:station:WAVCIS:CSI09:1,2012-03-09T16:00:00Z,29.1015,-89.9782,17.4,11111222 
WAVCIS,ioos:station:WAVCIS:CSI09:1,2012-03-09T17:00:00Z,29.1015,-89.9782,17.76,11111222 
WAVCIS,ioos:station:WAVCIS:CSI09:1,2012-03-09T18:00:00Z,29.1015,-89.9782,17.98,11111222 
WAVCIS,ioos:station:WAVCIS:CSI09:1,2012-03-09T19:00:00Z,29.1015,-89.9782,17.85,11111222 
WAVCIS,ioos:station:WAVCIS:CSI09:1,2012-03-09T20:00:00Z,29.1015,-89.9782,17.74,11111222 
WAVCIS,ioos:station:WAVCIS:CSI09:1,2012-03-09T21:00:00Z,29.1015,-89.9782,18.28,11111222 
WAVCIS,ioos:station:WAVCIS:CSI09:1,2012-03-09T22:00:00Z,29.1015,-89.9782,18.32,11111222 
WAVCIS,ioos:station:WAVCIS:CSI09:1,2012-03-09T23:00:00Z,29.1015,-89.9782,18.48,11111222 
WAVCIS,ioos:station:WAVCIS:CSI09:1,2012-03-10T00:00:00Z,29.1015,-89.9782,18.56,11111222 
WAVCIS,ioos:station:WAVCIS:CSI09:1,2012-03-10T01:00:00Z,29.1015,-89.9782,18.41,11111222 
WAVCIS,ioos:station:WAVCIS:CSI09:1,2012-03-10T02:00:00Z,29.1015,-89.9782,18.28,11111222 
WAVCIS,ioos:station:WAVCIS:CSI09:1,2012-03-10T03:00:00Z,29.1015,-89.9782,16.6,11111222 
WAVCIS,ioos:station:WAVCIS:CSI09:1,2012-03-10T04:00:00Z,29.1015,-89.9782,15.57,11111222 
WAVCIS,ioos:station:WAVCIS:CSI09:1,2012-03-10T05:00:00Z,29.1015,-89.9782,14.6,11111222 
WAVCIS,ioos:station:WAVCIS:CSI09:1,2012-03-10T06:00:00Z,29.1015,-89.9782,14.73,11111222 
WAVCIS,ioos:station:WAVCIS:CSI09:1,2012-03-10T07:00:00Z,29.1015,-89.9782,15.06,11111222 
WAVCIS,ioos:station:WAVCIS:CSI09:1,2012-03-10T08:00:00Z,29.1015,-89.9782,15.13,11111222 
WAVCIS,ioos:station:WAVCIS:CSI09:1,2012-03-10T09:00:00Z,29.1015,-89.9782,15.28,11111222 
WAVCIS,ioos:station:WAVCIS:CSI09:1,2012-03-10T10:00:00Z,29.1015,-89.9782,15.57,11111222 
WAVCIS,ioos:station:WAVCIS:CSI09:1,2012-03-10T11:00:00Z,29.1015,-89.9782,15.8,11111222 
WAVCIS,ioos:station:WAVCIS:CSI09:1,2012-03-10T12:00:00Z,29.1015,-89.9782,16.03,11111222 
WAVCIS,ioos:station:WAVCIS:CSI09:1,2012-03-10T13:00:00Z,29.1015,-89.9782,16.1,11111222 
WAVCIS,ioos:station:WAVCIS:CSI09:1,2012-03-10T14:00:00Z,29.1015,-89.9782,16.07,11111222 
WAVCIS,ioos:station:WAVCIS:CSI09:1,2012-03-10T15:00:00Z,29.1015,-89.9782,16.47,11111222 
WAVCIS,ioos:station:WAVCIS:CSI09:1,2012-03-10T16:00:00Z,29.1015,-89.9782,16.73,11111222 
WAVCIS,ioos:station:WAVCIS:CSI09:1,2012-03-10T17:00:00Z,29.1015,-89.9782,16.86,11111222 
WAVCIS,ioos:station:WAVCIS:CSI09:1,2012-03-10T18:00:00Z,29.1015,-89.9782,17.03,11111222 
WAVCIS,ioos:station:WAVCIS:CSI09:1,2012-03-10T19:00:00Z,29.1015,-89.9782,16.97,11111222 
WAVCIS,ioos:station:WAVCIS:CSI09:1,2012-03-10T20:00:00Z,29.1015,-89.9782,17.07,11111222 
WAVCIS,ioos:station:WAVCIS:CSI09:1,2012-03-10T21:00:00Z,29.1015,-89.9782,17.1,11111222 
WAVCIS,ioos:station:WAVCIS:CSI09:1,2012-03-10T22:00:00Z,29.1015,-89.9782,17.27,11111222 
WAVCIS,ioos:station:WAVCIS:CSI09:1,2012-03-10T23:00:00Z,29.1015,-89.9782,17.49,11111222 
WAVCIS,ioos:station:WAVCIS:CSI09:1,2012-03-11T00:00:00Z,29.1015,-89.9782,17.78,11111222 
WAVCIS,ioos:station:WAVCIS:CSI09:1,2012-03-11T01:00:00Z,29.1015,-89.9782,17.77,11111222 
WAVCIS,ioos:station:WAVCIS:CSI09:1,2012-03-11T02:00:00Z,29.1015,-89.9782,17.98,11111222 
WAVCIS,ioos:station:WAVCIS:CSI09:1,2012-03-11T03:00:00Z,29.1015,-89.9782,18.15,11111222 
WAVCIS,ioos:station:WAVCIS:CSI09:1,2012-03-11T04:00:00Z,29.1015,-89.9782,18.31,11111222 
WAVCIS,ioos:station:WAVCIS:CSI09:1,2012-03-11T05:00:00Z,29.1015,-89.9782,18.47,11111222 
WAVCIS,ioos:station:WAVCIS:CSI09:1,2012-03-11T06:00:00Z,29.1015,-89.9782,18.46,11111222 
WAVCIS,ioos:station:WAVCIS:CSI09:1,2012-03-11T07:00:00Z,29.1015,-89.9782,18.5,11111222 
WAVCIS,ioos:station:WAVCIS:CSI09:1,2012-03-11T08:00:00Z,29.1015,-89.9782,18.55,11111222 
WAVCIS,ioos:station:WAVCIS:CSI09:1,2012-03-11T09:00:00Z,29.1015,-89.9782,19.18,11111222 
WAVCIS,ioos:station:WAVCIS:CSI09:1,2012-03-11T10:00:00Z,29.1015,-89.9782,19.21,11111222 
WAVCIS,ioos:station:WAVCIS:CSI09:1,2012-03-11T11:00:00Z,29.1015,-89.9782,19.21,11111222 
WAVCIS,ioos:station:WAVCIS:CSI09:1,2012-03-11T12:00:00Z,29.1015,-89.9782,19.45,11111222 
WAVCIS,ioos:station:WAVCIS:CSI09:1,2012-03-11T13:00:00Z,29.1015,-89.9782,19.35,11111222 
WAVCIS,ioos:station:WAVCIS:CSI09:1,2012-03-11T14:00:00Z,29.1015,-89.9782,19.6,11111222 
WAVCIS,ioos:station:WAVCIS:CSI09:1,2012-03-11T15:00:00Z,29.1015,-89.9782,19.96,11111222 
WAVCIS,ioos:station:WAVCIS:CSI09:1,2012-03-11T16:00:00Z,29.1015,-89.9782,19.92,11111222 
WAVCIS,ioos:station:WAVCIS:CSI09:1,2012-03-11T17:00:00Z,29.1015,-89.9782,19.89,11111222 
WAVCIS,ioos:station:WAVCIS:CSI09:1,2012-03-11T18:00:00Z,29.1015,-89.9782,19.94,11111222 
WAVCIS,ioos:station:WAVCIS:CSI09:1,2012-03-11T19:00:00Z,29.1015,-89.9782,19.92,11111222 
WAVCIS,ioos:station:WAVCIS:CSI09:1,2012-03-11T20:00:00Z,29.1015,-89.9782,20.03,11111222 
WAVCIS,ioos:station:WAVCIS:CSI09:1,2012-03-11T21:00:00Z,29.1015,-89.9782,20.28,11111222 
WAVCIS,ioos:station:WAVCIS:CSI09:1,2012-03-11T22:00:00Z,29.1015,-89.9782,20.35,11111222 
WAVCIS,ioos:station:WAVCIS:CSI09:1,2012-03-11T23:00:00Z,29.1015,-89.9782,20.39,11111222 
WAVCIS,ioos:station:WAVCIS:CSI09:1,2012-03-12T00:00:00Z,29.1015,-89.9782,19.84,11111222 
WAVCIS,ioos:station:WAVCIS:CSI09:1,2012-03-12T01:00:00Z,29.1015,-89.9782,19.66,11111222 
WAVCIS,ioos:station:WAVCIS:CSI09:1,2012-03-12T02:00:00Z,29.1015,-89.9782,19.77,11111222 
WAVCIS,ioos:station:WAVCIS:CSI09:1,2012-03-12T03:00:00Z,29.1015,-89.9782,19.72,11111222 
WAVCIS,ioos:station:WAVCIS:CSI09:1,2012-03-12T04:00:00Z,29.1015,-89.9782,19.66,11111222 